[[{"header":{"parameterUnit":"m.s-1","parameterCategory":2,"la1":30.2991,"la2":30.254,"lo1":-89.0895,"lo2":-89.0444,"dy":0.0017,"dx":0.0017,"nx":28,"ny":28,"refTime":"2023-10-28T21:00:00:Z","depth":"0","parameterNumber":2,"parameterNumberName":"U-component_of_CURRENTS"},"data":[0,0,0,0,0,0,0,0,0,0,0,0,0,0,0,0,0,0,0,0,0,0,0,0,0,0,0,0,0,0,0,0,0,0,0,0,0,0,0,0,0,0,0,0,0,0,0,0,0,0,0,0,0,0,0,0,0,0,0.2748,0.2749,0,0.2853,0.2854,0.2855,0.2886,0.2886,0.2885,0.2885,0.2901,0.2902,0.2903,0,0,0,0,0,0,0,0,0,0,0,0,0,0.26,0.2602,0.2748,0.2749,0.2751,0.2853,0.2855,0.2856,0.2886,0.2886,0.2885,0.2885,0.2901,0.2902,0.2903,0,0,0,0,0,0,0,0,0,0,0,0,0,0.2678,0.2603,0.2747,0.278,0.2784,0.2853,0.2855,0.2856,0.2886,0.2886,0.2885,0.2884,0.2901,0.2902,0.2903,0.2921,0,0,0.2906,0.2907,0,0,0,0,0,0,0,0,0.2674,0.2683,0.2774,0.2778,0.2783,0.2858,0.2809,0.2874,0.2886,0.2845,0.2885,0.2884,0.288,0.2883,0.2902,0.2921,0.2922,0.2907,0.2907,0.2908,0.2908,0,0,0,0,0,0,0,0.2668,0.2679,0.2787,0.2775,0.2781,0.2799,0.2809,0.2822,0.2861,0.2848,0.2851,0.2867,0.2882,0.2901,0.2903,0.2922,0.2907,0.2908,0.2908,0.2909,0.2994,0.2996,0,0,0,0,0,0,0.266,0.2674,0.2784,0.2791,0.2729,0.2802,0.2813,0.2832,0.2863,0.2868,0.2868,0.2868,0.2899,0.2901,0.2903,0.2946,0.2908,0.2909,0.2909,0.2993,0.2995,0.2996,0,0,0,0,0,0,0.2656,0.2669,0.278,0.2736,0.2752,0.2805,0.2827,0.2835,0.286,0.2879,0.2882,0.2884,0.2899,0.2901,0.2913,0.2946,0.2909,0.291,0.2991,0.2993,0.2995,0.3018,0,0,0,0,0,0,0.2651,0.2667,0.2677,0.2736,0.2754,0.2825,0.2828,0.2837,0.2871,0.2873,0.2894,0.2895,0.2899,0.2912,0.2915,0.2947,0.2911,0.2989,0.2992,0.2995,0.3016,0.3021,0.3026,0,0,0,0,0,0.2646,0.2667,0.2677,0.269,0.2767,0.2827,0.2838,0.2872,0.2872,0.289,0.2895,0.2895,0.2934,0.2913,0.2916,0.295,0.2987,0.2991,0.2994,0.3013,0.302,0.3026,0,0,0,0,0,0,0.2603,0.2674,0.2686,0.2725,0.2773,0.2833,0.2854,0.2876,0.2898,0.2893,0.2902,0.2904,0.2938,0.2937,0.2915,0.2986,0.2966,0.2971,0.298,0.2986,0.2991,0.3003,0.2912,0,0,0,0,0,0.26,0.2637,0.2698,0.2729,0.2751,0.2801,0.2828,0.2854,0.2884,0.2895,0.2913,0.2931,0.2957,0.2962,0.2988,0.301,0.3025,0.3039,0.3044,0.3049,0.3063,0.3107,0.3117,0.3008,0.3008,0.3008,0,0,0.2593,0.2635,0.2655,0.2722,0.2758,0.28,0.2816,0.2861,0.2893,0.289,0.2931,0.2952,0.297,0.3006,0.3022,0.3005,0.3089,0.3053,0.3056,0.3069,0.3111,0.3122,0.3131,0.301,0.301,0.301,0,0,0.2597,0.2632,0.2663,0.2704,0.2765,0.28,0.2813,0.2878,0.2902,0.2939,0.2957,0.2993,0.302,0.3054,0.3067,0.3116,0.3122,0.3127,0.3152,0.3194,0.3203,0.3211,0.3242,0.3253,0.312,0.312,0.312,0,0.2577,0.2629,0.2679,0.2719,0.2749,0.2799,0.283,0.2873,0.2933,0.2957,0.295,0.3034,0.3049,0.3106,0.3129,0.3129,0.3146,0.3121,0.32,0.3208,0.3216,0.3246,0.3257,0.3122,0.3121,0.3121,0.3121,0,0.2614,0.2648,0.2669,0.2733,0.2773,0.281,0.2871,0.2913,0.2941,0.2984,0.3049,0.308,0.3127,0.3149,0.315,0.3226,0.3218,0.3206,0.3179,0.3229,0.3257,0.3268,0.3124,0.3123,0.3123,0.3122,0,0,0.257,0.2672,0.2673,0.2702,0.2779,0.2816,0.2872,0.294,0.2979,0.304,0.3091,0.3158,0.3185,0.3205,0.3228,0.3269,0.3341,0.3261,0.3263,0.3284,0.3429,0.3264,0.326,0.3337,0.3339,0.3341,0.3424,0,0.257,0.2636,0.2688,0.2739,0.2775,0.2836,0.2884,0.2953,0.3005,0.3071,0.313,0.3188,0.3203,0.3227,0.3276,0.3329,0.3374,0.332,0.3386,0.3388,0.3228,0.3269,0.303,0.307,0.3435,0.3437,0.3438,0,0.2575,0.2622,0.2671,0.2746,0.2765,0.2804,0.2883,0.2936,0.304,0.3079,0.3154,0.3204,0.3296,0.3287,0.3408,0.3369,0.3409,0.3444,0.3447,0.3294,0.3244,0.3082,0.3077,0.3,0.3456,0.3455,0.3453,0,0.2519,0.2598,0.2633,0.2662,0.2761,0.279,0.284,0.2937,0.2984,0.3092,0.3136,0.3241,0.3295,0.3371,0.3442,0.3433,0.3555,0.3544,0.344,0.3429,0.3239,0.3206,0.3157,0.3633,0.3633,0.3633,0.3633,0,0.2496,0.2521,0.2611,0.2636,0.2675,0.2755,0.2806,0.2874,0.2971,0.3028,0.3135,0.3196,0.332,0.3399,0.3458,0.347,0.3567,0.3455,0.344,0.3237,0.3204,0.3138,0.3111,0.3636,0.3635,0.3635,0.3634,0,0.2435,0.2493,0.2538,0.2629,0.2653,0.2681,0.2774,0.2818,0.2917,0.2995,0.3031,0.318,0.3269,0.3367,0.3489,0.3464,0.3376,0.3492,0.3234,0.3185,0.2956,0.2939,0.2769,0.2703,0.3378,0.3374,0.3371,0,0.2415,0.2435,0.2513,0.2532,0.2572,0.2627,0.2666,0.2773,0.282,0.2976,0.3006,0.3129,0.3186,0.3283,0.3267,0.3302,0.3258,0.3086,0.3015,0.2908,0.2882,0.2792,0.2745,0.2793,0.2785,0.2779,0.2774,0,0.2375,0.2399,0.2438,0.2473,0.2508,0.2553,0.2616,0.2649,0.2775,0.2835,0.2935,0.2996,0.3055,0.2962,0.2963,0.2959,0.2856,0.2955,0.2923,0.2474,0.2297,0.2235,0.2788,0.2719,0.2725,0.2729,0.2732,0.2734,0.2334,0.2339,0.238,0.2401,0.244,0.2473,0.2475,0.2545,0.2595,0.2646,0.2779,0.2769,0.2697,0.265,0.2625,0.2387,0.2494,0.228,0.2291,0.2231,0.2067,0.2478,0.2331,0.2335,0.2337,0.234,0.2342,0,0.2268,0.228,0.2306,0.2322,0.2322,0.2377,0.2426,0.2407,0.2409,0.2456,0.2486,0.2346,0.2184,0.2118,0.1872,0.1746,0.17,0.1699,0.1555,0.1569,0.1998,0.1871,0.1519,0.1519,0.1519,0.1519,0.1519,0.1519,0.2236,0.2218,0.2223,0.219,0.2203,0.2174,0.2181,0.2165,0.2168,0.2062,0.1943,0.1912,0.1798,0.154,0.1314,0.1282,0.1225,0.1069,0.1219,0.1547,0.1604,0.1659,0.1535,0.1118,0.1118,0.067,0.0666,0.0663]},{"header":{"parameterUnit":"m.s-1","parameterCategory":2,"la1":30.2991,"la2":30.254,"lo1":-89.0895,"lo2":-89.0444,"dy":0.0017,"dx":0.0017,"nx":28,"ny":28,"refTime":"2023-10-28T21:00:00:Z","depth":"0","parameterNumber":3,"parameterNumberName":"V-component_of_CURRENTS"},"data":[0,0,0,0,0,0,0,0,0,0,0,0,0,0,0,0,0,0,0,0,0,0,0,0,0,0,0,0,0,0,0,0,0,0,0,0,0,0,0,0,0,0,0,0,0,0,0,0,0,0,0,0,0,0,0,0,0,0,-0.0065,-0.0065,0,-0.0156,-0.0157,-0.0159,-0.0207,-0.0207,-0.0207,-0.0207,-0.0282,-0.0284,-0.0286,0,0,0,0,0,0,0,0,0,0,0,0,0,0.0003,0.0002,-0.0064,-0.0066,-0.0067,-0.0156,-0.0158,-0.0159,-0.0207,-0.0207,-0.0207,-0.0207,-0.0282,-0.0284,-0.0286,0,0,0,0,0,0,0,0,0,0,0,0,0,-0.0052,0.0002,-0.0064,-0.0101,-0.0105,-0.0156,-0.0158,-0.0159,-0.0207,-0.0207,-0.0207,-0.0207,-0.0281,-0.0284,-0.0287,-0.0305,0,0,-0.0296,-0.0297,0,0,0,0,0,0,0,0,-0.0049,-0.0055,-0.0094,-0.0098,-0.0103,-0.017,-0.0161,-0.0207,-0.0207,-0.017,-0.0207,-0.0207,-0.0242,-0.0249,-0.0268,-0.0309,-0.0312,-0.0296,-0.0298,-0.0299,-0.03,0,0,0,0,0,0,0,-0.0045,-0.0051,-0.0102,-0.0096,-0.0101,-0.0135,-0.0142,-0.0171,-0.0205,-0.0173,-0.0176,-0.0185,-0.0245,-0.0265,-0.027,-0.0313,-0.0296,-0.0299,-0.0301,-0.0302,-0.0384,-0.0384,0,0,0,0,0,0,-0.0028,-0.0047,-0.0099,-0.0105,-0.0074,-0.0136,-0.0144,-0.0149,-0.0206,-0.0214,-0.0185,-0.0187,-0.0259,-0.0266,-0.0272,-0.0286,-0.0299,-0.0302,-0.0304,-0.0384,-0.0384,-0.0385,0,0,0,0,0,0,-0.0026,-0.0032,-0.0095,-0.0078,-0.0088,-0.0137,-0.0142,-0.0151,-0.0168,-0.0215,-0.0223,-0.0192,-0.026,-0.0268,-0.0284,-0.0289,-0.0303,-0.0306,-0.0383,-0.0384,-0.0384,-0.0319,0,0,0,0,0,0,-0.0024,-0.003,-0.0029,-0.0076,-0.0088,-0.0118,-0.0142,-0.0153,-0.0173,-0.0176,-0.0223,-0.0231,-0.026,-0.0279,-0.0287,-0.0293,-0.0309,-0.0383,-0.0384,-0.0384,-0.0321,-0.0318,-0.0315,0,0,0,0,0,-0.0021,-0.002,-0.0029,-0.0035,-0.0084,-0.0118,-0.0127,-0.0163,-0.0173,-0.0178,-0.0202,-0.0229,-0.029,-0.0281,-0.029,-0.0298,-0.0382,-0.0383,-0.0384,-0.0322,-0.0318,-0.0315,0,0,0,0,0,0,0.0004,-0.0026,-0.0036,-0.0046,-0.0074,-0.0125,-0.0134,-0.0157,-0.0183,-0.018,-0.0223,-0.0232,-0.0251,-0.0284,-0.0273,-0.0327,-0.0346,-0.0348,-0.0296,-0.0292,-0.0289,-0.0265,-0.0311,0,0,0,0,0,0.0014,0.001,-0.0027,-0.0034,-0.0043,-0.0085,-0.0103,-0.0125,-0.0154,-0.0167,-0.02,-0.0235,-0.0265,-0.0282,-0.0313,-0.0335,-0.0337,-0.0352,-0.0349,-0.0346,-0.0335,-0.0349,-0.0345,-0.0387,-0.0387,-0.0387,0,0,0.0019,0.0004,0.0,-0.0028,-0.005,-0.006,-0.0096,-0.0114,-0.0123,-0.0169,-0.0185,-0.022,-0.0267,-0.0291,-0.0305,-0.0317,-0.0329,-0.0347,-0.0344,-0.0334,-0.0349,-0.0345,-0.0341,-0.0388,-0.0388,-0.0388,0,0,0.0037,0.0022,0.0029,0.0012,-0.0013,-0.0039,-0.0039,-0.0082,-0.0099,-0.0119,-0.0155,-0.0186,-0.0235,-0.0271,-0.0294,-0.0294,-0.0308,-0.0314,-0.0282,-0.0295,-0.0291,-0.0288,-0.025,-0.0244,-0.0317,-0.0317,-0.0317,0,0.0048,0.0051,0.0023,0.0027,0.002,-0.0022,-0.0017,-0.0044,-0.0088,-0.0096,-0.0113,-0.0184,-0.0226,-0.0257,-0.026,-0.0286,-0.0275,-0.0287,-0.0288,-0.0285,-0.0283,-0.0246,-0.024,-0.0314,-0.0314,-0.0314,-0.0315,0,0.0071,0.0074,0.0078,0.0073,0.0059,0.0057,0.0024,0.0009,-0.0016,-0.0045,-0.0075,-0.0133,-0.0174,-0.0203,-0.023,-0.0244,-0.0232,-0.0275,-0.0289,-0.0274,-0.0236,-0.0231,-0.0309,-0.031,-0.0311,-0.0312,0,0,0.0102,0.0097,0.0101,0.0108,0.0087,0.0079,0.0072,0.0052,0.0054,0.0003,-0.0001,-0.007,-0.01,-0.0129,-0.0178,-0.02,-0.017,-0.0223,-0.0225,-0.0168,-0.0152,-0.0097,-0.0086,-0.0208,-0.0208,-0.0208,-0.0119,0,0.0133,0.0157,0.0142,0.0161,0.0169,0.0138,0.0136,0.0113,0.0086,0.0072,0.0009,-0.0014,-0.0073,-0.0088,-0.0119,-0.0163,-0.0159,-0.0187,-0.019,-0.0189,-0.013,-0.0081,-0.0045,0.004,-0.0114,-0.0113,-0.0112,0,0.0165,0.0177,0.0208,0.0211,0.0214,0.0218,0.0216,0.0208,0.0177,0.0158,0.0122,0.0076,0.0038,-0.0018,-0.0061,-0.0072,-0.0095,-0.0128,-0.0127,-0.0096,-0.0127,-0.001,0.0055,0.0003,-0.0104,-0.0105,-0.0106,0,0.0207,0.0222,0.0252,0.0254,0.0252,0.0263,0.026,0.0239,0.0247,0.022,0.023,0.0164,0.0153,0.009,0.0027,-0.0012,-0.0,-0.007,-0.0032,-0.0027,-0.0008,-0.0002,0.0019,-0.0079,-0.008,-0.008,-0.008,0,0.0245,0.0266,0.0277,0.0294,0.0332,0.0312,0.0348,0.0332,0.033,0.0363,0.0285,0.0309,0.0179,0.0161,0.0083,0.007,0.0049,0.0004,-0.0001,0.0019,0.0026,-0.0029,-0.0067,-0.0076,-0.0077,-0.0078,-0.0078,0,0.0281,0.029,0.0326,0.0344,0.0355,0.0384,0.0413,0.0435,0.0429,0.0473,0.0475,0.0437,0.0428,0.0325,0.0249,0.0173,0.0121,0.0127,0.0191,0.0191,0.0156,0.0121,0.0173,0.0149,0.0181,0.0183,0.0185,0,0.0299,0.0325,0.0372,0.0405,0.0418,0.0458,0.0488,0.0487,0.0521,0.0568,0.0602,0.0608,0.0643,0.057,0.0436,0.0351,0.0246,0.031,0.022,0.0195,0.0149,0.0122,0.0094,0.0286,0.0289,0.029,0.0292,0,0.0337,0.036,0.0395,0.0465,0.051,0.0559,0.0606,0.0651,0.0674,0.0739,0.0833,0.0873,0.0822,0.0766,0.0637,0.054,0.0296,0.0347,0.0283,0.0222,0.023,0.0191,0.0218,0.0309,0.0307,0.0306,0.0305,0.0304,0.037,0.0406,0.0461,0.0526,0.0584,0.0657,0.0709,0.0781,0.0879,0.0996,0.1025,0.1137,0.1024,0.0866,0.0728,0.0495,0.0462,0.0398,0.0361,0.0339,0.0305,0.0406,0.05,0.05,0.0499,0.0499,0.0499,0,0.0409,0.0451,0.0514,0.0598,0.0669,0.0687,0.0784,0.0853,0.0997,0.1151,0.1268,0.1321,0.1199,0.0983,0.0692,0.0532,0.0421,0.0424,0.0362,0.0329,0.0393,0.0382,0.05,0.05,0.05,0.05,0.05,0.05,0.0432,0.0499,0.0531,0.0655,0.0715,0.081,0.0869,0.0993,0.1121,0.1334,0.1449,0.1514,0.1368,0.0913,0.0593,0.0498,0.0356,0.036,0.0279,0.0282,0.0274,0.0267,0.0246,0.0334,0.0334,0.0222,0.0221,0.022]}],[{"header":{"parameterUnit":"m.s-1","parameterCategory":2,"la1":30.2991,"la2":30.254,"lo1":-89.0895,"lo2":-89.0444,"dy":0.0017,"dx":0.0017,"nx":28,"ny":28,"refTime":"2023-10-28T21:00:00:Z","depth":"2","parameterNumber":2,"parameterNumberName":"U-component_of_CURRENTS"},"data":[0,0,0,0,0,0,0,0,0,0,0,0,0,0,0,0,0,0,0,0,0,0,0,0,0,0,0,0,0,0,0,0,0,0,0,0,0,0,0,0,0,0,0,0,0,0,0,0,0,0,0,0,0,0,0,0,0,0,0.1913,0.1913,0,0.1889,0.1888,0.1888,0.1874,0.1874,0.1874,0.1874,0.1853,0.1852,0.1851,0,0,0,0,0,0,0,0,0,0,0,0,0,0.1924,0.1924,0.1913,0.1913,0.1913,0.1889,0.1888,0.1888,0.1874,0.1874,0.1874,0.1874,0.1853,0.1852,0.1851,0,0,0,0,0,0,0,0,0,0,0,0,0,0.1909,0.1924,0.1913,0.1905,0.1904,0.1889,0.1888,0.1888,0.1874,0.1874,0.1874,0.1874,0.1853,0.1852,0.1851,0.184,0,0,0.1848,0.1847,0,0,0,0,0,0,0,0,0.191,0.1909,0.1906,0.1906,0.1905,0.1887,0.1884,0.1873,0.1874,0.1883,0.1874,0.1875,0.1866,0.1864,0.1855,0.1839,0.1838,0.1848,0.1847,0.1847,0.1846,0,0,0,0,0,0,0,0.1911,0.1909,0.1901,0.1906,0.1905,0.1894,0.1892,0.1882,0.1872,0.1882,0.1882,0.1882,0.1865,0.1856,0.1855,0.1838,0.1848,0.1847,0.1846,0.1846,0.1883,0.1884,0,0,0,0,0,0,0.192,0.191,0.1902,0.1901,0.1911,0.1894,0.1892,0.189,0.1872,0.187,0.1882,0.1882,0.1858,0.1856,0.1854,0.1891,0.1847,0.1846,0.1845,0.1881,0.1883,0.1885,0,0,0,0,0,0,0.192,0.1919,0.1903,0.1907,0.1905,0.1894,0.1892,0.189,0.1893,0.1872,0.187,0.189,0.1858,0.1855,0.1873,0.1888,0.1845,0.1844,0.1879,0.1882,0.1884,0.1932,0,0,0,0,0,0,0.192,0.1919,0.1921,0.1908,0.1905,0.1897,0.1892,0.1889,0.1894,0.1893,0.1878,0.1875,0.1858,0.1875,0.1872,0.1886,0.1843,0.1877,0.188,0.1883,0.1928,0.1935,0.1942,0,0,0,0,0,0.1921,0.1921,0.1922,0.1921,0.1908,0.1897,0.1895,0.1886,0.1894,0.1892,0.1903,0.1876,0.1892,0.1876,0.1872,0.1885,0.1875,0.1879,0.1883,0.1925,0.1934,0.1942,0,0,0,0,0,0,0.1923,0.192,0.192,0.1919,0.1912,0.1896,0.1898,0.1896,0.19,0.191,0.1894,0.1893,0.1914,0.1899,0.1882,0.1908,0.188,0.1883,0.1914,0.1922,0.1929,0.1916,0.1842,0,0,0,0,0,0.1927,0.1928,0.1921,0.192,0.1922,0.1915,0.1912,0.1908,0.191,0.1912,0.1908,0.1914,0.1923,0.1924,0.1924,0.1934,0.1932,0.1944,0.195,0.1956,0.1946,0.1983,0.1992,0.1897,0.1897,0.1897,0,0,0.1925,0.1927,0.1925,0.1921,0.192,0.1921,0.1914,0.1915,0.1924,0.191,0.1931,0.1936,0.1934,0.1952,0.1959,0.1941,0.1985,0.1961,0.1965,0.1951,0.1988,0.1997,0.2005,0.1899,0.1899,0.1898,0,0,0.1925,0.1929,0.1932,0.1934,0.1939,0.1932,0.1938,0.1936,0.1945,0.1964,0.1966,0.1989,0.1991,0.1996,0.1999,0.2045,0.2023,0.2046,0.2062,0.21,0.2107,0.2114,0.2129,0.2137,0.2045,0.2045,0.2045,0,0.1926,0.1927,0.193,0.1941,0.1942,0.1942,0.1945,0.1956,0.1961,0.1976,0.1979,0.201,0.2012,0.2037,0.2056,0.2058,0.2068,0.2028,0.2107,0.2114,0.212,0.2134,0.2142,0.2048,0.2048,0.2047,0.2047,0,0.1928,0.1934,0.194,0.1952,0.1955,0.1956,0.1971,0.1988,0.2005,0.2012,0.2048,0.2059,0.2079,0.2086,0.2084,0.2126,0.2115,0.2115,0.2082,0.2132,0.2144,0.2152,0.2052,0.2051,0.205,0.2049,0,0,0.1909,0.1934,0.1937,0.1946,0.196,0.1962,0.1992,0.2008,0.2036,0.2054,0.2091,0.2114,0.2125,0.2131,0.2135,0.2157,0.2217,0.2153,0.2154,0.216,0.2288,0.2199,0.2198,0.2233,0.2235,0.2236,0.228,0,0.1906,0.1921,0.1935,0.1949,0.1954,0.1976,0.1999,0.2024,0.2054,0.2095,0.2121,0.2157,0.2143,0.2164,0.2188,0.2213,0.2238,0.2204,0.2244,0.2245,0.2154,0.2204,0.1995,0.201,0.2287,0.2288,0.2289,0,0.1898,0.191,0.192,0.1948,0.1954,0.1968,0.2007,0.203,0.2091,0.2123,0.2164,0.219,0.2234,0.2224,0.2276,0.2256,0.2277,0.2285,0.2287,0.2187,0.2169,0.2005,0.2012,0.2301,0.23,0.2299,0.2298,0,0.187,0.1898,0.1904,0.1914,0.1946,0.1967,0.1987,0.2037,0.2067,0.2149,0.2183,0.2236,0.2275,0.2306,0.2328,0.2318,0.2377,0.2372,0.2304,0.2298,0.2116,0.209,0.2414,0.2414,0.2414,0.2414,0.2414,0,0.185,0.1859,0.1897,0.1903,0.1921,0.1954,0.1989,0.2026,0.209,0.2123,0.2195,0.2227,0.23,0.234,0.2353,0.2342,0.2405,0.2306,0.2307,0.2127,0.2103,0.2347,0.2338,0.2416,0.2415,0.2415,0.2415,0,0.1814,0.1837,0.1849,0.189,0.1906,0.1921,0.198,0.2003,0.2072,0.2124,0.2154,0.2244,0.2291,0.2336,0.2396,0.2364,0.2371,0.2354,0.2125,0.2096,0.2262,0.2256,0.2286,0.2283,0.2281,0.2279,0.2277,0,0.1795,0.1798,0.1835,0.1844,0.1864,0.19,0.1916,0.1985,0.2009,0.2111,0.2122,0.221,0.2226,0.227,0.2252,0.2253,0.2331,0.2055,0.1992,0.2253,0.2251,0.2248,0.2245,0.1777,0.1772,0.1767,0.1764,0,0.1759,0.1775,0.1786,0.18,0.1818,0.184,0.1872,0.1888,0.1963,0.1993,0.2027,0.2054,0.2103,0.2001,0.2016,0.1991,0.2035,0.196,0.2308,0.1837,0.1775,0.1773,0.1786,0.1723,0.1727,0.173,0.1732,0.1734,0.1735,0.1726,0.174,0.1744,0.1759,0.1757,0.1743,0.1772,0.1779,0.1787,0.1876,0.1836,0.1846,0.1753,0.169,0.1654,0.1809,0.1712,0.1725,0.1744,0.1672,0.1609,0.1511,0.1514,0.1516,0.1519,0.152,0,0.169,0.1681,0.1682,0.1667,0.1639,0.1687,0.1685,0.1638,0.1589,0.1621,0.1615,0.1459,0.1372,0.1403,0.1269,0.1254,0.1246,0.1203,0.1169,0.121,0.1246,0.1148,0.0849,0.0847,0.0845,0.0844,0,0,0.1666,0.1633,0.1617,0.1544,0.1539,0.1476,0.1456,0.1395,0.1377,0.1297,0.1252,0.133,0.1355,0.1096,0.1043,0.0923,0.1068,0.0882,0.1418,0.142,0.1454,0.1532,0.1426,0,0,0,0,0]},{"header":{"parameterUnit":"m.s-1","parameterCategory":2,"la1":30.2991,"la2":30.254,"lo1":-89.0895,"lo2":-89.0444,"dy":0.0017,"dx":0.0017,"nx":28,"ny":28,"refTime":"2023-10-28T21:00:00:Z","depth":"2","parameterNumber":3,"parameterNumberName":"V-component_of_CURRENTS"},"data":[0,0,0,0,0,0,0,0,0,0,0,0,0,0,0,0,0,0,0,0,0,0,0,0,0,0,0,0,0,0,0,0,0,0,0,0,0,0,0,0,0,0,0,0,0,0,0,0,0,0,0,0,0,0,0,0,0,0,0.0235,0.0235,0,0.0234,0.0234,0.0234,0.0224,0.0224,0.0224,0.0223,0.0217,0.0217,0.0217,0,0,0,0,0,0,0,0,0,0,0,0,0,0.0215,0.0215,0.0235,0.0235,0.0235,0.0234,0.0234,0.0234,0.0224,0.0224,0.0223,0.0223,0.0217,0.0217,0.0217,0,0,0,0,0,0,0,0,0,0,0,0,0,0.022,0.0215,0.0235,0.023,0.023,0.0234,0.0234,0.0234,0.0224,0.0224,0.0223,0.0223,0.0217,0.0217,0.0217,0.0225,0,0,0.0218,0.0218,0,0,0,0,0,0,0,0,0.0219,0.022,0.0231,0.023,0.023,0.0229,0.0224,0.0231,0.0224,0.0226,0.0223,0.0223,0.0221,0.0221,0.0221,0.0225,0.0225,0.0218,0.0218,0.0218,0.0218,0,0,0,0,0,0,0,0.0219,0.022,0.0235,0.0231,0.023,0.0223,0.0223,0.0225,0.0225,0.0226,0.0225,0.0225,0.0221,0.0221,0.0221,0.0224,0.0218,0.0218,0.0218,0.0218,0.0224,0.0224,0,0,0,0,0,0,0.022,0.022,0.0235,0.0234,0.0224,0.0224,0.0224,0.0229,0.0226,0.0225,0.0226,0.0225,0.0221,0.0221,0.0221,0.0231,0.0218,0.0218,0.0218,0.0224,0.0224,0.0224,0,0,0,0,0,0,0.022,0.0222,0.0235,0.0227,0.0228,0.0225,0.023,0.023,0.0231,0.0225,0.0224,0.0228,0.0221,0.0221,0.0219,0.0231,0.0218,0.0218,0.0223,0.0224,0.0224,0.0251,0,0,0,0,0,0,0.022,0.0222,0.0228,0.0227,0.0228,0.0243,0.0231,0.023,0.0232,0.0231,0.0227,0.0226,0.0221,0.0219,0.0219,0.0231,0.0218,0.0223,0.0223,0.0224,0.025,0.0252,0.0254,0,0,0,0,0,0.0219,0.023,0.0228,0.023,0.0236,0.0244,0.0244,0.024,0.0232,0.0239,0.0228,0.0226,0.022,0.0219,0.0219,0.0231,0.0223,0.0223,0.0224,0.0249,0.0252,0.0254,0,0,0,0,0,0,0.0222,0.023,0.0228,0.024,0.0244,0.0242,0.0248,0.0243,0.024,0.0237,0.0228,0.0226,0.023,0.0224,0.0223,0.0232,0.0222,0.0222,0.0241,0.0243,0.0245,0.0264,0.0218,0,0,0,0,0,0.0227,0.0239,0.0241,0.0251,0.0254,0.0251,0.0253,0.025,0.0246,0.0245,0.024,0.0234,0.0232,0.0232,0.0229,0.0235,0.0228,0.0242,0.0244,0.0246,0.0261,0.0252,0.0254,0.0224,0.0224,0.0224,0,0,0.0231,0.0237,0.0243,0.0253,0.0255,0.0267,0.0251,0.0258,0.0267,0.0245,0.0254,0.0242,0.0234,0.0239,0.024,0.0236,0.0248,0.0246,0.0248,0.0262,0.0252,0.0255,0.0258,0.0225,0.0225,0.0225,0,0,0.0248,0.0251,0.0268,0.0273,0.0279,0.0279,0.0282,0.0282,0.0281,0.0285,0.027,0.0263,0.0262,0.0258,0.0256,0.0268,0.0258,0.0266,0.0294,0.0285,0.0287,0.029,0.0276,0.0277,0.0267,0.0268,0.0268,0,0.025,0.0275,0.0273,0.029,0.0299,0.0287,0.0306,0.0306,0.0304,0.0307,0.0291,0.0286,0.0274,0.0284,0.0285,0.0274,0.0266,0.0286,0.0288,0.029,0.0292,0.0277,0.0278,0.0269,0.0269,0.0269,0.0268,0,0.0284,0.03,0.031,0.033,0.0339,0.0353,0.0353,0.0358,0.0351,0.0348,0.0351,0.0329,0.0325,0.0319,0.0306,0.0317,0.0305,0.0291,0.0285,0.0297,0.028,0.0281,0.0271,0.027,0.027,0.027,0,0,0.0298,0.0328,0.0332,0.035,0.0362,0.0375,0.039,0.0406,0.0421,0.0405,0.0423,0.0404,0.0385,0.0381,0.036,0.0354,0.0348,0.0332,0.0331,0.0323,0.0327,0.0317,0.0315,0.0335,0.0336,0.0336,0.0307,0,0.0325,0.0368,0.0374,0.0413,0.0436,0.0433,0.0453,0.0461,0.0459,0.0472,0.0446,0.0452,0.041,0.0409,0.0393,0.0367,0.0352,0.0358,0.0313,0.0312,0.0305,0.0317,0.0333,0.0308,0.0307,0.0307,0.0307,0,0.0358,0.0385,0.043,0.0464,0.0474,0.0494,0.0527,0.0541,0.0549,0.0548,0.0538,0.0515,0.0503,0.0465,0.0419,0.0425,0.038,0.0353,0.0351,0.0337,0.0302,0.0297,0.0308,0.0307,0.0307,0.0307,0.0307,0,0.0383,0.0423,0.0465,0.0477,0.0512,0.0533,0.055,0.0566,0.059,0.0597,0.0615,0.0581,0.0575,0.0519,0.0446,0.0435,0.0398,0.037,0.0317,0.0315,0.0319,0.0318,0.0338,0.0338,0.0338,0.0338,0.0339,0,0.0416,0.0447,0.0482,0.0507,0.0558,0.0566,0.0617,0.0628,0.0654,0.0697,0.0655,0.0679,0.059,0.0551,0.0474,0.04,0.0411,0.0332,0.0313,0.0327,0.0327,0.032,0.0318,0.0337,0.0338,0.0338,0.0338,0,0.0439,0.0462,0.0512,0.0557,0.0574,0.061,0.0665,0.0702,0.0719,0.0774,0.0781,0.0758,0.0712,0.0615,0.0529,0.0444,0.0371,0.0337,0.0359,0.0342,0.0284,0.0284,0.0278,0.0278,0.0277,0.0277,0.0277,0,0.0456,0.0486,0.0549,0.0584,0.0607,0.066,0.0703,0.0735,0.0779,0.0829,0.0864,0.0834,0.0825,0.0686,0.0547,0.0413,0.0382,0.0322,0.0302,0.03,0.0281,0.0281,0.0282,0.0311,0.0311,0.0311,0.0311,0,0.0486,0.051,0.0553,0.0624,0.0677,0.0738,0.08,0.0849,0.0897,0.0943,0.0995,0.0991,0.0871,0.0745,0.0555,0.0458,0.0344,0.0318,0.0319,0.0325,0.0328,0.031,0.031,0.0311,0.0311,0.0311,0.0311,0.0311,0.0508,0.0542,0.06,0.0666,0.0728,0.0808,0.0866,0.0934,0.1013,0.1077,0.1078,0.1065,0.0927,0.0688,0.0531,0.0354,0.0365,0.0285,0.0286,0.0286,0.0297,0.03,0.0278,0.0278,0.0278,0.0278,0.0278,0,0.0531,0.0571,0.0635,0.0717,0.0786,0.0817,0.0925,0.0982,0.1076,0.1119,0.1149,0.1005,0.0875,0.0704,0.0461,0.0316,0.0297,0.0247,0.0264,0.0266,0.0267,0.0276,0.0252,0.0252,0.0251,0.025,0,0,0.0544,0.0602,0.0634,0.0744,0.0806,0.09,0.0965,0.105,0.1102,0.1135,0.1117,0.1099,0.0919,0.0727,0.0541,0.04,0.0356,0.0358,0.0397,0.0442,0.0445,0.0312,0.0331,0,0,0,0,0]}],[{"header":{"parameterUnit":"m.s-1","parameterCategory":2,"la1":30.2991,"la2":30.254,"lo1":-89.0895,"lo2":-89.0444,"dy":0.0017,"dx":0.0017,"nx":28,"ny":28,"refTime":"2023-10-28T21:00:00:Z","depth":"4","parameterNumber":2,"parameterNumberName":"U-component_of_CURRENTS"},"data":[0,0,0,0,0,0,0,0,0,0,0,0,0,0,0,0,0,0,0,0,0,0,0,0,0,0,0,0,0,0,0,0,0,0,0,0,0,0,0,0,0,0,0,0,0,0,0,0,0,0,0,0,0,0,0,0,0,0,0.1023,0.1024,0,0.103,0.1029,0.1029,0.1047,0.1048,0.1049,0.1049,0.1081,0.1081,0.1082,0,0,0,0,0,0,0,0,0,0,0,0,0,0.1068,0.1067,0.1023,0.1024,0.1024,0.103,0.1029,0.1029,0.1047,0.1048,0.1049,0.1049,0.1081,0.1081,0.1082,0,0,0,0,0,0,0,0,0,0,0,0,0,0.1056,0.1066,0.1023,0.1036,0.1037,0.103,0.1029,0.1029,0.1047,0.1048,0.1049,0.105,0.1081,0.1081,0.1082,0.1064,0,0,0.1083,0.1083,0,0,0,0,0,0,0,0,0.1056,0.1054,0.1034,0.1035,0.1037,0.1041,0.1057,0.1043,0.1047,0.104,0.1049,0.105,0.1071,0.1073,0.1067,0.1065,0.1067,0.1083,0.1083,0.1083,0.1083,0,0,0,0,0,0,0,0.1057,0.1054,0.1023,0.1034,0.1036,0.1055,0.1054,0.1054,0.1048,0.1041,0.1043,0.1048,0.1072,0.1067,0.1068,0.1067,0.1083,0.1083,0.1083,0.1083,0.1136,0.1137,0,0,0,0,0,0,0.1059,0.1054,0.1023,0.1023,0.1053,0.1054,0.1052,0.1036,0.1048,0.1051,0.1047,0.1049,0.1065,0.1068,0.1069,0.1123,0.1083,0.1084,0.1084,0.1135,0.1136,0.1138,0,0,0,0,0,0,0.1059,0.1055,0.1023,0.1043,0.1041,0.1052,0.1034,0.1036,0.1057,0.1053,0.1056,0.107,0.1066,0.1069,0.11,0.1122,0.1084,0.1084,0.1133,0.1135,0.1137,0.1183,0,0,0,0,0,0,0.106,0.1054,0.106,0.1042,0.104,0.1035,0.1034,0.1035,0.1058,0.1061,0.1073,0.1075,0.1067,0.11,0.1101,0.1122,0.1084,0.1132,0.1134,0.1136,0.118,0.1186,0.1192,0,0,0,0,0,0.1061,0.1055,0.1059,0.1057,0.1039,0.1036,0.1037,0.1047,0.1059,0.1069,0.1086,0.1076,0.1114,0.1101,0.1102,0.1123,0.1131,0.1134,0.1136,0.1178,0.1185,0.1192,0,0,0,0,0,0,0.108,0.1056,0.106,0.1048,0.1054,0.1041,0.1055,0.1061,0.108,0.1095,0.109,0.1094,0.1128,0.1121,0.1107,0.1146,0.1121,0.1124,0.1152,0.1159,0.1165,0.1156,0.1085,0,0,0,0,0,0.1085,0.1075,0.1063,0.1062,0.1063,0.1066,0.1073,0.108,0.1088,0.1098,0.1107,0.1121,0.1133,0.1145,0.1151,0.1172,0.1173,0.1188,0.1193,0.1198,0.1192,0.1223,0.1231,0.1146,0.1146,0.1146,0,0,0.1094,0.1083,0.1078,0.1067,0.1071,0.1073,0.1072,0.1088,0.1101,0.1098,0.1131,0.1142,0.1144,0.117,0.1184,0.1171,0.1225,0.1202,0.1206,0.1197,0.1226,0.1234,0.1242,0.1148,0.1148,0.1147,0,0,0.1101,0.1096,0.109,0.1093,0.1105,0.1102,0.1113,0.1117,0.1133,0.116,0.1165,0.1192,0.1209,0.1214,0.1217,0.1258,0.1254,0.1267,0.129,0.132,0.1327,0.1333,0.1352,0.136,0.1271,0.1271,0.1271,0,0.1124,0.11,0.1095,0.1095,0.1103,0.1117,0.1123,0.1135,0.1155,0.117,0.1181,0.1219,0.1224,0.125,0.1267,0.1269,0.1286,0.1263,0.1327,0.1333,0.1339,0.1357,0.1364,0.1273,0.1273,0.1273,0.1273,0,0.1114,0.1114,0.1115,0.1113,0.1125,0.1134,0.1146,0.1171,0.1196,0.1206,0.125,0.1264,0.1288,0.1296,0.1294,0.1337,0.1337,0.1331,0.1308,0.135,0.1366,0.1373,0.1277,0.1276,0.1275,0.1275,0,0,0.1118,0.1109,0.1114,0.1118,0.1135,0.1139,0.1171,0.1192,0.1218,0.125,0.1285,0.1311,0.1332,0.1338,0.1348,0.1369,0.1427,0.1373,0.1374,0.1389,0.1498,0.1388,0.1385,0.1442,0.1444,0.1445,0.1497,0,0.1119,0.1114,0.1114,0.1129,0.1127,0.1154,0.1179,0.121,0.1242,0.1282,0.131,0.1348,0.1345,0.1374,0.1398,0.1423,0.1447,0.1413,0.1457,0.1458,0.1353,0.139,0.1449,0.1502,0.1503,0.1504,0.1505,0,0.1103,0.1102,0.1109,0.1127,0.1133,0.1155,0.12,0.1227,0.1282,0.1312,0.1359,0.1386,0.1435,0.1427,0.1487,0.1473,0.1491,0.1499,0.1501,0.1382,0.136,0.145,0.1518,0.1517,0.1516,0.1515,0.1514,0,0.1086,0.1098,0.1103,0.1109,0.1134,0.1162,0.1192,0.1244,0.1272,0.1346,0.1378,0.1436,0.148,0.1513,0.154,0.1531,0.1594,0.1583,0.1494,0.1487,0.155,0.1542,0.1618,0.1618,0.1618,0.1618,0.1618,0,0.1063,0.1073,0.1101,0.1101,0.1128,0.1161,0.1204,0.1243,0.1307,0.1339,0.1404,0.1433,0.1507,0.1549,0.1564,0.1549,0.1621,0.1497,0.1492,0.1569,0.1564,0.1555,0.1547,0.162,0.1619,0.1619,0.1619,0,0.1036,0.105,0.106,0.1097,0.1115,0.1142,0.1206,0.123,0.1303,0.1352,0.1382,0.1459,0.151,0.1557,0.1613,0.1566,0.1569,0.1544,0.1627,0.1627,0.1436,0.1431,0.1449,0.1445,0.1442,0.144,0.1438,0,0.1012,0.1013,0.1054,0.1065,0.1088,0.1131,0.1155,0.1224,0.125,0.1346,0.136,0.1441,0.148,0.1468,0.1528,0.1545,0.1523,0.1511,0.146,0.1424,0.1419,0.1418,0.1416,0.1433,0.1432,0.1431,0.1431,0,0.0974,0.1002,0.1012,0.1032,0.1058,0.1071,0.1118,0.1126,0.1203,0.1284,0.13,0.1319,0.1368,0.14,0.1425,0.1433,0.151,0.148,0.1485,0.1437,0.1406,0.1403,0.1405,0.142,0.1422,0.1423,0.1423,0,0.0958,0.0957,0.0975,0.0984,0.101,0.0996,0.1025,0.1045,0.1075,0.1182,0.1188,0.1269,0.1353,0.1343,0.1366,0.1365,0.1339,0.1281,0.1296,0.1308,0.1236,0.1174,0.1113,0,0,0,0,0,0.0932,0.0917,0.0921,0.091,0.0931,0.0942,0.0987,0.1019,0.1098,0.1076,0.1126,0.1163,0.1185,0.1229,0.12,0.1308,0.1349,0.1267,0.1292,0.1364,0.1376,0.1303,0,0,0,0,0,0,0.091,0.0918,0.0898,0.0844,0.0828,0.0831,0.0855,0.0907,0.0898,0.0993,0.1015,0.1086,0.1134,0.1196,0.1178,0.1192,0.1178,0.1324,0.1321,0.1357,0.1368,0.1377,0.1306,0,0,0,0,0]},{"header":{"parameterUnit":"m.s-1","parameterCategory":2,"la1":30.2991,"la2":30.254,"lo1":-89.0895,"lo2":-89.0444,"dy":0.0017,"dx":0.0017,"nx":28,"ny":28,"refTime":"2023-10-28T21:00:00:Z","depth":"4","parameterNumber":3,"parameterNumberName":"V-component_of_CURRENTS"},"data":[0,0,0,0,0,0,0,0,0,0,0,0,0,0,0,0,0,0,0,0,0,0,0,0,0,0,0,0,0,0,0,0,0,0,0,0,0,0,0,0,0,0,0,0,0,0,0,0,0,0,0,0,0,0,0,0,0,0,0.0264,0.0264,0,0.0277,0.0277,0.0278,0.0285,0.0285,0.0285,0.0285,0.0301,0.0302,0.0302,0,0,0,0,0,0,0,0,0,0,0,0,0,0.0229,0.023,0.0264,0.0264,0.0264,0.0277,0.0277,0.0278,0.0285,0.0285,0.0285,0.0285,0.0301,0.0302,0.0302,0,0,0,0,0,0,0,0,0,0,0,0,0,0.0244,0.023,0.0264,0.0269,0.027,0.0277,0.0277,0.0278,0.0285,0.0285,0.0285,0.0285,0.0301,0.0301,0.0302,0.0306,0,0,0.0304,0.0304,0,0,0,0,0,0,0,0,0.0243,0.0245,0.0268,0.0269,0.027,0.0279,0.0271,0.0287,0.0285,0.0279,0.0285,0.0285,0.0294,0.0295,0.0298,0.0307,0.0307,0.0304,0.0305,0.0305,0.0305,0,0,0,0,0,0,0,0.0242,0.0244,0.0269,0.0269,0.0269,0.0266,0.0268,0.0274,0.0287,0.028,0.028,0.0281,0.0294,0.0297,0.0298,0.0308,0.0304,0.0305,0.0305,0.0305,0.033,0.033,0,0,0,0,0,0,0.0241,0.0244,0.0269,0.027,0.0256,0.0266,0.0269,0.0276,0.0286,0.0288,0.0281,0.0282,0.0296,0.0298,0.0299,0.0318,0.0305,0.0305,0.0306,0.0329,0.033,0.033,0,0,0,0,0,0,0.024,0.0243,0.0268,0.0256,0.0259,0.0267,0.0275,0.0277,0.0284,0.0288,0.0289,0.0288,0.0296,0.0298,0.0309,0.0318,0.0306,0.0306,0.0329,0.033,0.033,0.0348,0,0,0,0,0,0,0.0239,0.0243,0.0251,0.0257,0.026,0.0278,0.0275,0.0277,0.0284,0.0285,0.0294,0.0295,0.0296,0.0308,0.0309,0.0319,0.0307,0.0329,0.0329,0.033,0.0347,0.0349,0.035,0,0,0,0,0,0.0238,0.025,0.0252,0.0255,0.027,0.0278,0.028,0.0285,0.0285,0.0291,0.0295,0.0295,0.0312,0.0308,0.031,0.032,0.0329,0.0329,0.033,0.0346,0.0348,0.035,0,0,0,0,0,0,0.0238,0.0252,0.0254,0.027,0.0275,0.028,0.0288,0.0288,0.0297,0.0298,0.03,0.0301,0.0314,0.0314,0.031,0.0328,0.032,0.0321,0.0331,0.0334,0.0335,0.0344,0.0307,0,0,0,0,0,0.0242,0.0257,0.0263,0.0276,0.028,0.0284,0.0289,0.0291,0.0297,0.0301,0.0307,0.0312,0.0317,0.0323,0.0328,0.0339,0.0327,0.0346,0.0347,0.0349,0.0357,0.0344,0.0345,0.0332,0.0332,0.0332,0,0,0.0245,0.0255,0.0263,0.0277,0.0283,0.0295,0.0288,0.0298,0.0309,0.0301,0.0322,0.0319,0.0321,0.0333,0.0339,0.0335,0.0344,0.035,0.0351,0.0358,0.0345,0.0346,0.0347,0.0332,0.0332,0.0332,0,0,0.0258,0.0268,0.0285,0.0292,0.0302,0.0306,0.0309,0.0317,0.0324,0.0337,0.0334,0.0336,0.035,0.0351,0.0353,0.0367,0.0353,0.0368,0.0386,0.0374,0.0375,0.0375,0.0352,0.0351,0.037,0.037,0.037,0,0.026,0.0284,0.0289,0.0304,0.0315,0.0312,0.0329,0.0335,0.0345,0.0353,0.0348,0.036,0.0359,0.0371,0.0375,0.0372,0.0358,0.0378,0.0376,0.0376,0.0377,0.0353,0.0351,0.0371,0.037,0.037,0.037,0,0.0285,0.0304,0.0314,0.0336,0.0346,0.036,0.0367,0.0378,0.0383,0.0387,0.04,0.0392,0.04,0.0397,0.0392,0.0397,0.0383,0.0378,0.037,0.0379,0.0353,0.0351,0.0372,0.0372,0.0371,0.0371,0,0,0.029,0.0325,0.033,0.0348,0.0366,0.0378,0.0398,0.0416,0.0433,0.0433,0.0451,0.0449,0.0439,0.0441,0.0429,0.0419,0.0403,0.0403,0.0402,0.0379,0.0367,0.0346,0.0341,0.0396,0.0396,0.0397,0.0343,0,0.031,0.0348,0.036,0.0397,0.0417,0.0424,0.0446,0.0459,0.0466,0.0482,0.0469,0.0481,0.0458,0.046,0.0445,0.0419,0.04,0.0417,0.0362,0.036,0.0341,0.0339,0.0397,0.0341,0.0341,0.034,0.034,0,0.0332,0.0357,0.0398,0.0436,0.0447,0.0468,0.0503,0.052,0.0533,0.0538,0.0537,0.0524,0.0513,0.049,0.0442,0.0454,0.0414,0.0386,0.0383,0.0359,0.0336,0.0333,0.0336,0.0336,0.0337,0.0337,0.0337,0,0.0342,0.0384,0.0422,0.0435,0.0475,0.0498,0.0519,0.054,0.0563,0.0574,0.0587,0.0563,0.0558,0.0508,0.0446,0.0445,0.0386,0.0376,0.0315,0.0312,0.0339,0.0339,0.0338,0.0338,0.0338,0.0338,0.0339,0,0.036,0.0391,0.0433,0.0456,0.0503,0.0521,0.0569,0.0584,0.0609,0.0638,0.0617,0.0625,0.0564,0.052,0.0456,0.0377,0.0389,0.0318,0.03,0.0346,0.0347,0.0337,0.0337,0.0336,0.0337,0.0337,0.0338,0,0.0368,0.0396,0.0441,0.0492,0.0512,0.0546,0.0605,0.0635,0.0655,0.0689,0.0696,0.0673,0.0619,0.0544,0.046,0.0395,0.032,0.0286,0.0335,0.032,0.0249,0.0251,0.0214,0.0213,0.0212,0.0211,0.021,0,0.0376,0.0401,0.0468,0.0499,0.0526,0.058,0.062,0.0657,0.0688,0.0716,0.0732,0.0695,0.0667,0.053,0.0449,0.0318,0.0298,0.0247,0.0253,0.0252,0.0238,0.0241,0.0245,0.0209,0.0209,0.0208,0.0208,0,0.0388,0.0414,0.0454,0.0516,0.0567,0.0623,0.0679,0.0704,0.0745,0.0764,0.0756,0.0692,0.0629,0.0526,0.0424,0.0331,0.0275,0.0236,0.0238,0.0243,0.0245,0.0233,0.0237,0.0205,0.0205,0.0206,0.0206,0,0.0397,0.0422,0.0474,0.0529,0.0592,0.0646,0.0679,0.0715,0.0747,0.0773,0.0766,0.0705,0.0671,0.0532,0.044,0.0346,0.032,0.0276,0.0275,0.0277,0.0311,0.0324,0.0293,0,0,0,0,0,0.0401,0.0429,0.048,0.0542,0.0604,0.0642,0.0709,0.0737,0.0776,0.0769,0.0768,0.0709,0.0579,0.053,0.0431,0.0418,0.0301,0.0297,0.0248,0.0187,0.019,0.0217,0,0,0,0,0,0,0.0403,0.045,0.0475,0.0543,0.0585,0.0655,0.07,0.0729,0.0726,0.0747,0.0684,0.0663,0.0543,0.0632,0.0422,0.0397,0.0346,0.0245,0.0243,0.0184,0.0188,0.0191,0.022,0,0,0,0,0]}]]